Location: Easthampton
(42.2676°N, 72.6690°W)
Time: 19:06:21
(UTC+00:00)

AO-91 - Pass Details

Date: 07 April 2023
Orbit: 446 x 775 km, 97.6° (Epoch: 30 May)

Event Time Altitude Azimuth Distance (km) Brightness Sun altitude
Rises 03:34:20 0° 7° (N) 3,263 ? -37.8°
Reaches altitude 10° 03:36:43 10° 2° (N) 2,340 ? -38.0°
Enters shadow 03:38:44 23° 354° (N) 1,606 ? -38.2°
